#timestamp,LO_Frequency,Hit,StdDev 
1553695215.8,286046994.1,N
1553695235.7,286046995.4,N
1553695255.5,286046995.8,N
1553695275.4,286046999.5,N
1553695295.2,286046996.8,N
1553695315.0,286046997.3,N
1553695315.9,286046997.3,N
1553695335.8,286047001.1,N
1553695355.6,286047001.1,N
1553695375.4,286047002.4,N
1553695395.3,286047000.4,N
1553695415.1,286047000.2,N
1553695435.9,286047002.0,N
1553695455.7,286047000.9,N
1553695475.5,286046998.7,N
1553695495.4,286046999.2,N
1553695515.2,286046996.9,N
1553695535.0,286046995.6,N
1553695535.9,286046995.6,N
1553695555.8,286046993.4,N
1553695575.6,286046997.7,N
1553695595.5,286046997.8,N
1553695615.3,286046999.5,N
1553695635.1,286047002.8,N
1553695655.9,286046999.7,N
1553695675.7,286047000.1,N
1553695695.6,286047000.8,N
1553695715.4,286047001.2,N
1553695735.2,286047002.8,N
1553695755.1,286046999.9,N
1553695756.0,286046999.9,N
1553695775.8,286047002.5,N
1553695795.6,286047004.0,N
1553695815.5,286047001.3,N
1553695835.3,286047004.0,N
1553695855.2,286047005.0,N
1553695875.9,286047007.6,N
1553695895.7,286047005.0,N
1553695915.6,286047001.3,N
1553695935.4,286047001.4,N
1553695955.3,286047002.1,N
1553695975.1,286047001.8,N
1553695976.0,286047001.8,N
1553695995.8,286047003.9,N
1553696015.7,286047005.7,N
1553696035.5,286047005.7,N
1553696055.3,286047007.5,N
1553696075.2,286047004.5,N
1553696095.0,286047008.4,N
1553696095.9,286047008.4,N
1553696115.8,286047005.2,N
1553696135.6,286047004.2,N
1553696155.4,286047001.7,N
1553696175.3,286047002.7,N
1553696195.1,286047002.4,N
1553696215.8,286047002.6,N
1553696235.7,286047001.0,N
1553696255.5,286046996.5,N
1553696275.4,286046996.1,N
1553696295.2,286046996.3,N
1553696315.0,286046995.9,N
1553696315.9,286046995.9,N
1553696335.8,286046993.6,N
1553696355.6,286046992.9,N
1553696375.5,286046991.4,N
1553696395.3,286046988.8,N
1553696415.1,286046990.3,N
1553696435.9,286046991.2,N
1553696455.7,286046990.8,N
1553696475.6,286046992.1,N
1553696495.4,286046997.5,N
1553696515.2,286046996.6,N
1553696535.1,286046998.4,N
1553696536.0,286046998.4,N
1553696555.8,286046999.3,N
1553696575.6,286046996.5,N
1553696595.5,286047000.8,N
1553696615.3,286047000.8,N
1553696635.2,286046996.8,N
1553696655.9,286046997.4,N
1553696675.7,286046995.8,N
1553696695.6,286046993.4,N
1553696715.4,286046994.9,N
1553696735.2,286046998.6,N
1553696755.1,286046998.3,N
1553696756.0,286046998.3,N
1553696775.8,286047000.3,N
1553696795.7,286046998.6,N
1553696815.5,286046999.5,N
1553696835.3,286046996.7,N
1553696855.2,286047000.0,N
1553696875.0,286046999.9,N
1553696875.9,286046999.9,N
1553696895.8,286047002.4,N
1553696915.6,286046999.7,N
1553696935.4,286047002.6,N
1553696955.3,286047000.4,N
1553696975.1,286047002.6,N
1553696995.8,286047002.4,N
1553697015.7,286047001.6,N
1553697035.5,286047002.0,N
1553697055.4,286046999.9,N
1553697075.2,286046999.9,N
1553697095.0,286047002.1,N
1553697095.9,286047002.1,N
1553697115.8,286047001.9,N
1553697135.6,286047001.3,N
1553697155.5,286047001.7,N
1553697175.3,286047003.5,N
1553697195.1,286047001.8,N
1553697215.9,286047005.5,N
1553697235.7,286047002.3,N
1553697255.5,286046998.7,N
1553697275.4,286046997.2,N
1553697295.2,286046996.6,N
1553697315.1,286046999.1,N
1553697316.0,286046999.1,N
1553697335.8,286047002.6,N
1553697355.6,286047002.6,N
1553697375.5,286047002.5,N
1553697395.3,286047002.1,N
1553697415.2,286047003.4,N
1553697435.9,286047005.4,N
1553697455.7,286047003.1,N
1553697475.6,286047002.3,N
1553697495.4,286046999.8,N
1553697515.2,286047002.5,N
1553697535.1,286047000.6,N
1553697536.0,286047000.6,N
1553697555.8,286046998.6,N
1553697575.7,286047001.8,N
1553697595.5,286047002.7,N
1553697615.3,286047003.6,N
1553697635.2,286047003.2,N
1553697655.0,286047004.3,N
1553697655.9,286047004.3,N
1553697675.8,286047005.5,N
1553697695.6,286047005.3,N
1553697715.4,286047003.0,N
1553697735.3,286047005.5,N
1553697755.1,286047004.6,N
1553697775.8,286047004.2,N
1553697795.7,286047004.3,N
1553697815.5,286047002.0,N
1553697835.4,286047001.5,N
1553697855.2,286047002.7,N
1553697875.0,286047001.6,N
1553697875.9,286047001.6,N
1553697895.8,286047001.6,N
1553697915.6,286047001.0,N
1553697935.5,286046998.4,N
1553697955.3,286047001.3,N
1553697975.1,286047003.2,N
1553697995.9,286047001.5,N
1553698015.7,286047002.4,N
1553698035.5,286046998.9,N
1553698055.4,286046997.6,N
1553698075.2,286046997.6,N
1553698095.1,286046999.5,N
1553698096.0,286046999.5,N
1553698115.8,286046997.5,N
1553698135.6,286046995.6,N
1553698155.5,286046996.2,N
1553698175.3,286046996.4,N
1553698195.2,286046996.2,N
1553698215.9,286046995.6,N
1553698235.7,286046995.9,N
1553698255.6,286046995.0,N
1553698275.4,286046997.7,N
1553698295.2,286046997.7,N
1553698315.1,286046998.9,N
1553698316.0,286046998.9,N
1553698335.8,286047000.5,N
1553698355.7,286047001.9,N
1553698375.5,286047004.4,N
1553698395.3,286047003.1,N
1553698415.2,286047005.2,N
1553698435.0,286047007.6,N
1553698435.9,286047007.6,N
1553698455.8,286047009.0,N
1553698475.6,286047009.1,N
1553698495.4,286047009.9,N
1553698515.3,286047010.1,N
1553698535.1,286047012.2,N
1553698555.8,286047010.1,N
1553698575.7,286047009.0,N
1553698595.5,286047005.0,N
1553698615.4,286047005.9,N
1553698635.2,286047003.7,N
1553698655.0,286047003.4,N
1553698655.9,286047003.4,N
1553698675.8,286047003.3,N
1553698695.6,286047003.5,N
1553698715.4,286047003.5,N
1553698735.3,286047002.6,N
1553698755.1,286047000.5,N
1553698775.9,286047000.9,N
1553698795.7,286047002.5,N
